Погода в Большой Константиновке

Россия / Самарская область     54°15′22″N   50°17′53″E
темп.,
°C
ветер,
м/с
пор.,
м/с
влажн.,
%
обл.,
%
осадки,
мм/ч
давл.,
гПа
погр.,
м
9 марта, вт
вт901:00−7зюз6138996 0.1 1003404
04:00−9зсз359681 0.3 1006100
07:00−14зюз349733 0.0 100837
10:00−12зюз239518 0.0 1010121
13:00−9юз128939 0.0 1010275
16:00−8ю229356 0.0 1009132
19:00−13з229658 0.1 101023
22:00−15ссз339860 0.1 101026
10 марта, ср
ср1001:00−16сз239870 0.0 100922
04:00−14зсз369783 0.1 1009178
07:00−15сз4109598 0.1 1010348
10:00−14сз6109299 0.3 1012531
13:00−14сз6991100 0.2 1013596
16:00−15сз6992100 0.4 1015627
19:00−17ссз51094100 0.3 1017504
22:00−20ссз4109296 0.3 1019286
11 марта, чт
чт1101:00−23сз489518 0.0 1020132
04:00−25сз46979 0.0 1022103
07:00−26зсз349912 0.0 102357
10:00−21зсз479646 0.0 1023317
13:00−17з4791100 0.0 1023476
16:00−15зсз4790100 0.1 1023639
19:00−18зсз3496100 0.0 102446
22:00−19з349983 0.1 102653
12 марта, пт
пт1201:00−16з379797 0.1 1027148
04:00−17з349996 0.1 102855
07:00−18з349979 0.0 102949
10:00−14зсз479468 0.0 1031266
13:00−10зсз468982 0.0 1031381
16:00−10з468778 0.0 1031354
19:00−15з349137 0.0 103249
22:00−16з348828 0.0 103446
13 марта, сб
сб1301:00−17зюз348547 0.0 103426
04:00−17зюз238839 0.0 103520
07:00−17юз239064 0.0 103520
10:00−13ююз359049 0.0 1036148
13:00−10юз468650 0.0 1035298
16:00−8ююз378950 0.0 1034321
19:00−12ююз34902 0.0 103352
22:00−16ююз47871 0.0 1033106